Location: Kawakawa
(35.3830°S, 174.0670°E)
Time: 06:48:52
(UTC+12:00)

ISS - Pass Details

Date: 07 July 2022
Orbit: 412 x 419 km, 51.6° (Epoch: 07 August)

Event Time Altitude Azimuth Distance (km) Brightness Sun altitude
Rises 18:57:46 0° 230° (SW) 2,380 0.6 -18.5°
Reaches altitude 10° 18:59:53 10° 232° (SW) 1,508 -0.5 -18.9°
Maximum altitude 19:03:16 73° 316° (NW) 442 -3.6 -19.6°
Enters shadow 19:03:59 50° 24° (NNE) 538 -3.4 -19.7°
